1499871600.92,1039,21.56,73988.3,12.05,6.75,6.13,0,*70
1499871602.15,1040,21.56,73992.3,12.05,6.73,6.03,0,*79
1499871603.39,1041,21.56,73990.8,12.01,6.61,5.99,0,*7F
1499871604.62,1042,21.56,73992.3,12.05,6.73,5.95,0,*77
1499871605.85,1043,21.56,73988.5,12.05,6.43,5.71,0,*7F
1499871607.09,1044,21.56,73988.0,12.01,6.35,5.49,0,*76
1499871608.3,1045,21.56,73988.8,12.01,6.21,5.33,0,*7F
1499871609.57,1046,21.56,73992.3,12.01,5.89,5.01,0,*7C
1499871610.81,1047,21.56,73990.5,12.05,6.17,5.23,0,*7D
1499871612.02,1048,21.56,73992.8,12.01,6.33,5.41,0,*74
1499871613.23,1049,21.56,73992.8,12.01,6.21,5.33,0,*73
1499871614.47,1050,21.56,73994.5,12.01,6.13,5.23,0,*7B
1499871615.7,1051,21.56,73988.0,12.01,5.81,4.85,0,*7F
1499871616.94,1052,21.56,73990.5,12.01,5.67,4.75,0,*7B
1499871618.17,1053,21.56,73990.3,11.97,5.95,4.97,0,*77
1499871619.38,1054,21.56,73988.8,11.99,6.13,5.29,0,*77
1499871620.62,1055,21.56,73990.3,12.01,6.13,5.19,0,*77
1499871621.83,1056,21.56,73988.3,11.99,6.13,5.11,0,*7E
1499871623.09,1057,21.56,73992.8,11.97,5.89,4.97,0,*7E
1499871624.32,1058,21.56,73986.8,11.97,5.85,4.85,0,*7E
1499871625.55,1059,21.56,73992.8,11.97,6.11,5.27,0,*78
1499871626.75,1060,21.56,73988.0,11.97,6.11,5.29,0,*7C
1499871627.98,1061,21.56,73988.3,11.97,5.89,5.07,0,*73
1499871629.22,1062,21.56,73988.0,11.97,5.67,4.93,0,*7C
1499871630.43,1063,21.56,73988.8,11.95,5.95,5.23,0,*78
1499871631.63,1064,21.56,73988.3,11.97,6.11,5.37,0,*77
1499871632.86,1065,21.56,73988.5,11.97,6.17,5.41,0,*71
1499871634.06,1066,21.56,73990.5,11.95,6.07,5.33,0,*74
1499871635.28,1067,21.56,73990.5,11.95,6.03,5.15,0,*75
1499871636.48,1068,21.56,73988.8,11.97,5.99,5.15,0,*78
1499871637.69,1069,21.56,73988.0,11.93,5.95,5.05,0,*70
1499871638.86,1070,21.56,73994.8,11.93,6.07,5.33,0,*75
1499871640.09,1071,21.56,73988.8,11.95,6.17,5.33,0,*73
1499871641.35,1072,21.56,73990.8,11.97,6.17,5.27,0,*77
1499871642.57,1073,21.56,73990.0,11.95,5.81,4.89,0,*7D
1499871643.81,1074,21.56,73992.0,11.95,6.03,5.05,0,*76
1499871645.07,1075,21.56,73990.8,11.95,5.93,5.01,0,*79
1499871646.33,1076,21.56,73988.5,11.95,5.81,4.79,0,*77
1499871647.53,1077,21.56,73988.8,11.93,5.63,4.67,0,*73
1499871648.73,1078,21.56,73990.8,11.93,5.71,4.75,0,*7C
1499871649.96,1079,21.56,73988.8,11.93,5.93,4.93,0,*79
1499871651.19,1080,21.56,73990.5,11.95,5.49,4.63,0,*71
1499871652.36,1081,21.56,73988.0,11.93,5.49,4.57,0,*71
1499871653.56,1082,21.56,73990.3,11.93,5.63,4.79,0,*76
1499871654.79,1083,21.56,73990.3,11.93,5.85,4.93,0,*7B
1499871656.02,1084,21.56,73984.8,11.93,5.81,4.93,0,*78
1499871657.28,1085,21.56,73990.3,11.95,5.73,4.93,0,*72
1499871658.51,1086,21.56,73988.8,11.93,5.73,5.01,0,*7D
1499871659.71,1087,21.56,73988.3,11.93,5.93,5.11,0,*73
1499871660.94,1088,21.56,73990.5,11.93,5.51,4.75,0,*71
1499871662.13,1089,21.56,73990.5,11.93,5.49,4.67,0,*7A
1499871663.31,1090,21.56,73990.5,11.93,5.37,4.57,0,*78
1499871664.5,1091,21.56,73986.8,11.91,5.33,4.49,0,*70
1499871665.67,1092,21.56,73990.8,11.93,5.37,4.53,0,*7E
1499871666.86,1093,21.56,73984.5,11.91,5.29,4.49,0,*79
1499871668.05,1094,21.56,73990.3,11.91,5.41,4.53,0,*7B
1499871669.27,1095,21.56,73988.0,11.91,5.41,4.59,0,*70
1499871670.44,1096,21.56,73984.5,11.89,5.41,4.57,0,*74
1499871671.62,1097,21.56,73984.8,11.89,5.41,4.57,0,*75
1499871672.82,1098,21.56,73990.3,11.89,5.45,4.71,0,*7A
1499871674.01,1099,21.56,73988.3,11.91,5.71,4.85,0,*7E
1499871675.23,1100,21.56,73990.8,11.91,5.59,4.79,0,*76
1499871676.46,1101,21.56,73988.0,11.91,5.71,4.97,0,*7D
1499871677.65,1102,21.56,73986.3,11.91,5.67,4.89,0,*76
1499871678.84,1103,21.56,73990.8,11.89,5.27,4.57,0,*79
1499871680.03,1104,21.56,73990.8,11.89,5.29,4.59,0,*7E
1499871681.2,1105,21.56,73990.3,11.89,5.29,4.57,0,*71
1499871682.42,1106,21.56,73986.8,11.91,5.45,4.75,0,*71
1499871683.6,1107,21.56,73990.5,11.89,5.19,4.45,0,*73
1499871684.76,1108,21.56,73988.8,11.89,5.29,4.45,0,*7F
1499871685.96,1109,21.56,73986.5,11.89,5.45,4.67,0,*74
1499871687.14,1110,21.56,73988.8,11.89,5.27,4.49,0,*74
1499871688.3,1111,21.56,73990.8,11.89,5.29,4.49,0,*7B
1499871689.49,1112,21.56,73986.0,11.89,5.27,4.49,0,*76
1499871690.66,1113,21.56,73986.8,11.89,5.29,4.57,0,*76
1499871691.85,1114,21.56,73988.0,11.89,5.29,4.59,0,*7F
1499871693.05,1115,21.56,73990.3,11.87,5.29,4.57,0,*7E
1499871694.3,1116,21.56,73988.5,11.87,5.55,4.93,0,*7E
1499871695.55,1117,21.56,73988.0,11.87,5.73,4.97,0,*7F
1499871696.76,1118,21.56,73988.3,11.89,5.63,4.97,0,*7F
1499871697.96,1119,21.56,73990.0,11.89,5.67,5.05,0,*70
1499871699.15,1120,21.56,73988.3,11.89,5.77,5.15,0,*7A
1499871700.33,1121,21.56,73990.5,11.89,5.67,5.15,0,*7A
1499871701.53,1122,21.56,73988.8,11.89,5.77,5.19,0,*74
1499871702.75,1123,21.56,73988.3,11.89,5.85,5.27,0,*75
1499871703.97,1124,21.56,73990.3,11.89,5.89,5.27,0,*7E
1499871705.2,1125,21.56,73990.0,11.89,5.73,5.05,0,*7A
1499871706.4,1126,21.56,73988.3,11.89,5.63,4.97,0,*72
1499871707.63,1127,21.56,73988.8,11.89,5.89,5.27,0,*7D
1499871708.85,1128,21.56,73986.3,11.89,5.89,5.27,0,*72
1499871710.08,1129,21.56,73990.0,11.91,5.41,4.75,0,*78
1499871711.26,1130,21.56,73988.8,11.89,5.63,5.07,0,*7D
1499871712.44,1131,21.56,73988.3,11.89,5.67,5.07,0,*78
1499871713.61,1132,21.56,73990.3,11.89,5.41,4.81,0,*70
1499871714.81,1133,21.56,73986.5,11.89,5.29,4.71,0,*70
1499871716.0,1134,21.56,73988.3,11.89,5.45,5.05,0,*7F
1499871717.23,1135,21.56,73992.0,11.87,5.19,4.75,0,*7F
1499871718.41,1136,21.56,73988.3,11.85,5.33,4.89,0,*75
1499871719.64,1137,21.56,73988.5,11.87,5.55,5.07,0,*71
1499871720.83,1138,21.56,73988.3,11.87,5.37,4.81,0,*75
1499871722.04,1139,21.56,73990.3,11.85,5.33,4.71,0,*7D
1499871723.25,1140,21.56,73990.5,11.85,5.81,5.23,0,*7C
1499871724.45,1141,21.56,73990.0,11.87,5.99,5.45,0,*76
1499871725.64,1142,21.56,73988.5,11.85,6.03,5.41,0,*73
1499871726.87,1143,21.56,73990.5,11.87,6.07,5.51,0,*75
1499871728.07,1144,21.56,73990.3,11.85,5.85,5.33,0,*7D
1499871729.3,1145,21.56,73988.8,11.85,5.81,5.27,0,*7D
1499871730.52,1146,21.56,73990.8,11.85,5.51,5.05,0,*73
1499871731.75,1147,21.56,73986.5,11.87,5.67,5.27,0,*75
1499871732.98,1148,21.56,73988.3,11.85,5.81,5.27,0,*70
1499871734.19,1149,21.56,73990.0,11.85,5.73,5.23,0,*78
1499871735.4,1150,21.56,73990.0,11.85,5.73,5.23,0,*70
1499871736.6,1151,21.56,73988.5,11.85,5.81,5.33,0,*7D
1499871737.8,1152,21.56,73988.8,11.87,5.99,5.45,0,*74
1499871738.98,1153,21.56,73992.0,11.85,5.63,5.15,0,*77
1499871740.16,1154,21.56,73990.0,11.85,5.49,5.11,0,*7C
1499871741.34,1155,21.56,73992.8,11.85,5.41,5.11,0,*75
1499871742.54,1156,21.56,73994.0,11.85,5.51,5.15,0,*73
1499871743.71,1157,21.56,73992.8,11.81,5.59,5.29,0,*71
1499871744.89,1158,21.56,73990.5,11.85,5.71,5.37,0,*7F
1499871746.06,1159,21.56,73992.3,11.85,5.41,5.15,0,*7D
1499871747.27,1160,21.56,73992.5,11.81,5.29,5.01,0,*78
1499871748.47,1161,21.56,73990.8,11.81,5.23,4.97,0,*7D
1499871749.71,1162,21.56,73988.3,11.79,5.11,4.79,0,*78
1499871750.94,1163,21.56,73994.5,11.79,5.23,4.97,0,*78
1499871752.15,1164,21.56,73994.5,11.79,5.19,4.89,0,*79
1499871753.39,1165,21.56,73992.3,11.73,5.01,4.71,0,*7C
1499871754.59,1166,21.56,73994.8,11.75,5.07,4.85,0,*74
1499871755.82,1167,21.56,73992.0,11.73,5.01,4.79,0,*76
1499871757.06,1168,21.56,73992.5,11.73,4.93,4.71,0,*7B
1499871758.29,1169,21.56,73994.0,11.73,5.01,4.79,0,*78
1499871759.49,1170,21.56,73994.8,11.73,4.81,4.59,0,*7B
1499871760.7,1171,21.56,73990.0,11.73,4.79,4.57,0,*73
1499871761.91,1172,21.56,73990.0,11.69,4.89,4.75,0,*74
1499871763.15,1173,21.56,73994.0,11.71,4.89,4.75,0,*7C
1499871764.39,1174,21.56,73992.5,11.71,4.89,4.75,0,*7B
1499871765.6,1175,21.56,73992.0,11.69,4.89,4.75,0,*73
1499871766.83,1176,21.56,73994.5,11.67,4.97,4.81,0,*7A
1499871768.06,1177,21.56,73992.5,11.65,4.71,4.59,0,*74
1499871769.29,1178,21.56,73992.5,11.67,4.97,4.81,0,*74
1499871770.51,1179,21.56,73994.5,11.67,5.07,5.05,0,*70
1499871771.72,1180,21.56,73988.3,11.65,5.11,5.01,0,*77
1499871772.93,1181,21.56,73992.3,11.65,5.11,5.01,0,*76
1499871774.13,1182,21.56,73988.8,11.65,5.27,5.15,0,*75
1499871775.33,1183,21.56,73990.5,11.65,5.27,5.19,0,*78
1499871776.5,1184,21.56,73988.8,11.65,5.41,5.29,0,*7C
1499871777.67,1185,21.56,73990.5,11.65,5.49,5.37,0,*7A
1499871778.86,1186,21.56,73990.5,11.65,5.19,5.15,0,*7C
1499871780.06,1187,21.56,73990.3,11.65,5.27,5.19,0,*7C
1499871781.24,1188,21.56,73994.0,11.63,5.19,5.11,0,*70
1499871782.48,1189,21.56,73988.3,11.63,5.01,5.01,0,*79
1499871783.7,1190,21.56,73988.8,11.63,5.07,5.01,0,*77
1499871784.9,1191,21.56,73990.8,11.61,5.23,5.15,0,*77
1499871786.13,1192,21.56,73990.3,11.61,5.15,5.01,0,*74
1499871787.34,1193,21.56,73990.3,11.61,5.15,5.07,0,*73
1499871788.54,1194,21.56,73988.8,11.61,5.49,5.37,0,*7E
1499871789.76,1195,21.56,73994.8,11.61,5.45,5.27,0,*72
1499871790.94,1196,21.56,73994.3,11.59,5.23,5.11,0,*7F
1499871792.16,1197,21.56,73994.8,11.57,5.07,4.97,0,*79
1499871793.36,1198,21.56,73994.5,11.57,5.41,5.29,0,*70
1499871794.56,1199,21.56,73992.3,11.57,5.29,5.19,0,*7C
1499871795.77,1200,21.56,73992.3,11.57,5.19,5.11,0,*74
1499871796.96,1201,21.56,73994.0,11.57,5.45,5.33,0,*7C
1499871798.16,1202,21.56,73990.8,11.53,5.49,5.37,0,*73
1499871799.36,1203,21.56,73992.3,11.57,5.41,5.29,0,*71
1499871800.57,1204,21.56,73990.0,11.57,5.33,5.23,0,*79
1499871801.77,1205,21.56,73990.8,11.53,5.41,5.41,0,*7D
1499871802.97,1206,21.56,73990.3,11.53,5.59,5.49,0,*7F
1499871804.19,1207,21.56,73990.0,11.53,5.81,5.71,0,*70
1499871805.38,1208,21.56,73994.3,11.51,5.63,5.59,0,*7B
1499871806.56,1209,21.56,73994.5,11.51,5.59,5.49,0,*72
1499871807.76,1210,21.56,73988.8,11.53,5.41,5.37,0,*78
1499871808.96,1211,21.56,73994.5,11.51,5.15,5.05,0,*7B
1499871810.13,1212,21.56,73994.5,11.51,5.49,5.29,0,*7F
1499871811.33,1213,21.56,73994.0,11.51,5.51,5.29,0,*77
1499871812.53,1214,21.56,73988.5,11.49,5.37,5.33,0,*72
1499871813.73,1215,21.56,73992.5,11.49,5.33,5.33,0,*77
1499871814.93,1216,21.56,73994.3,11.49,5.67,5.45,0,*74
1499871816.13,1217,21.56,73992.5,11.47,5.55,5.45,0,*7A
1499871817.36,1218,21.56,73992.5,11.47,5.73,5.55,0,*70
1499871818.59,1219,21.56,73992.5,11.47,5.73,5.55,0,*71
1499871819.79,1220,21.56,73994.0,11.47,5.81,5.63,0,*73
1499871821.02,1221,21.56,73992.3,11.49,6.03,5.85,0,*7D
1499871822.25,1222,21.56,73990.0,11.49,5.81,5.59,0,*76
1499871823.48,1223,21.56,73994.8,11.47,5.77,5.51,0,*78
1499871824.71,1224,21.56,73992.8,11.49,5.81,5.59,0,*70
1499871825.93,1225,21.56,73992.3,11.47,5.77,5.51,0,*7E
1499871827.11,1226,21.56,73988.8,11.47,5.67,5.41,0,*7D
1499871828.3,1227,21.56,73992.8,11.47,5.41,5.19,0,*75
1499871829.5,1228,21.56,73992.3,11.47,5.29,5.01,0,*7D
1499871830.71,1229,21.56,73992.5,11.47,5.23,4.97,0,*78
1499871831.91,1230,21.56,73994.8,11.47,5.51,5.33,0,*7A
1499871833.09,1231,21.56,73994.3,11.47,5.63,5.41,0,*7F
1499871834.27,1232,21.56,73992.5,11.43,5.59,5.37,0,*70
1499871835.49,1233,21.56,73994.3,11.45,5.55,5.33,0,*7F
1499871836.72,1234,21.56,73994.0,11.43,5.73,5.51,0,*7E
1499871837.92,1235,21.56,73992.0,11.47,5.55,5.29,0,*70
1499871839.15,1236,21.56,73992.5,11.45,5.51,5.33,0,*7E
1499871840.38,1237,21.56,73994.0,11.45,5.67,5.51,0,*7E
1499871841.55,1238,21.56,73996.8,11.43,5.63,5.41,0,*72
1499871842.73,1239,21.56,73994.0,11.43,5.71,5.49,0,*78
1499871843.96,1240,21.56,73994.0,11.43,5.73,5.51,0,*7D
1499871845.16,1241,21.56,73992.5,11.45,5.67,5.41,0,*7E
1499871846.39,1242,21.56,73988.8,11.43,5.77,5.51,0,*7B
1499871847.61,1243,21.56,73994.3,11.43,5.77,5.51,0,*7A
1499871848.81,1244,21.56,73994.3,11.43,5.73,5.49,0,*70
1499871850.04,1245,21.56,73992.8,11.43,5.77,5.51,0,*7C
1499871851.27,1246,21.56,73994.8,11.45,6.03,5.73,0,*79
1499871852.48,1247,21.56,73988.8,11.43,5.99,5.85,0,*77
1499871853.68,1248,21.56,73992.3,11.43,6.07,5.89,0,*70
1499871854.89,1249,21.56,73992.0,11.43,5.99,5.85,0,*79
1499871856.09,1250,21.56,73994.8,11.43,5.99,5.81,0,*75
1499871857.35,1251,21.56,73990.5,11.45,5.93,5.73,0,*75
1499871858.55,1252,21.56,73994.0,11.43,5.99,5.85,0,*73
1499871859.76,1253,21.56,73992.0,11.43,5.99,5.85,0,*72
1499871861.0,1254,21.56,73992.3,11.45,6.03,5.89,0,*7F
1499871862.23,1255,21.56,73994.5,11.45,5.89,5.67,0,*7F
1499871863.46,1256,21.56,73994.8,11.43,5.73,5.51,0,*7A
1499871864.64,1257,21.56,73988.0,11.43,5.71,5.49,0,*70
1499871865.81,1258,21.56,73992.5,11.43,5.71,5.49,0,*7F
1499871867.0,1259,21.56,73992.0,11.43,5.71,5.59,0,*7F
1499871868.17,1260,21.56,73994.0,11.43,5.71,5.63,0,*7C
1499871869.36,1261,21.56,73994.8,11.43,5.71,5.59,0,*74
1499871870.58,1262,21.56,73992.5,11.41,5.55,5.45,0,*7E
1499871871.79,1263,21.56,73994.3,11.41,5.67,5.67,0,*7E
1499871873.03,1264,21.56,73990.5,11.41,5.81,5.73,0,*74
1499871874.27,1265,21.56,73994.8,11.41,5.67,5.55,0,*79
1499871875.47,1266,21.56,73992.0,11.43,5.63,5.51,0,*78
1499871876.68,1267,21.56,73988.3,11.41,5.71,5.59,0,*70
1499871877.93,1268,21.56,73990.0,11.41,5.93,5.81,0,*76
1499871879.17,1269,21.56,73992.3,11.39,5.93,5.73,0,*75
1499871880.37,1270,21.56,73990.3,11.39,5.71,5.55,0,*75
1499871881.61,1271,21.56,73992.3,11.39,5.73,5.55,0,*76
1499871882.81,1272,21.56,73990.8,11.41,5.71,5.49,0,*75
1499871884.01,1273,21.56,73992.5,11.39,5.71,5.55,0,*76
1499871885.19,1274,21.56,73992.5,11.39,5.71,5.45,0,*70
1499871886.41,1275,21.56,73988.5,11.39,5.85,5.67,0,*7A
1499871887.61,1276,21.56,73994.0,11.37,5.71,5.45,0,*7C
1499871888.85,1277,21.56,73990.5,11.37,5.93,5.71,0,*76
1499871890.09,1278,21.56,73988.8,11.37,5.93,5.63,0,*7A
1499871891.33,1279,21.56,73988.8,11.37,5.89,5.71,0,*73
1499871892.6,1280,21.56,73992.5,11.37,5.89,5.51,0,*77
1499871893.83,1281,21.56,73994.0,11.37,5.51,5.23,0,*76
1499871895.02,1282,21.56,73994.3,11.35,5.63,5.33,0,*77
1499871896.23,1283,21.56,73994.0,11.35,5.81,5.41,0,*7F
1499871897.41,1284,21.56,73992.3,11.35,5.71,5.41,0,*77
1499871898.61,1285,21.56,73994.3,11.35,5.77,5.41,0,*70
1499871899.82,1286,21.56,73992.3,11.35,6.03,5.55,0,*76
1499871901.0,1287,21.56,73990.5,11.35,5.71,5.29,0,*7A
1499871902.21,1288,21.56,73992.8,11.35,5.51,5.07,0,*7B
1499871903.4,1289,21.56,73992.8,11.35,5.67,5.07,0,*7F
1499871904.62,1290,21.56,73994.0,11.31,5.67,5.19,0,*7C
1499871905.82,1291,21.56,73992.0,11.29,5.85,5.37,0,*74
1499871907.06,1292,21.56,73992.3,11.31,5.89,5.37,0,*72
1499871908.27,1293,21.56,73992.5,11.29,5.81,5.33,0,*76
1499871909.45,1294,21.56,73994.5,11.29,5.71,5.15,0,*7A
1499871910.68,1295,21.56,73994.3,11.31,5.85,5.29,0,*76
1499871911.9,1296,21.56,73994.8,11.29,5.73,5.23,0,*7F
1499871913.1,1297,21.56,73992.8,11.29,5.59,5.05,0,*72
1499871914.31,1298,21.56,73992.0,11.29,5.49,4.93,0,*72
1499871915.54,1299,21.56,73994.8,11.31,5.85,5.37,0,*75
1499871916.73,1300,21.56,73994.3,11.29,6.03,5.37,0,*70
1499871917.94,1301,21.56,73992.0,11.29,5.63,4.93,0,*7B
1499871919.2,1302,21.56,73996.0,11.27,5.73,5.05,0,*79
1499871920.43,1303,21.56,73992.3,11.27,5.63,5.05,0,*79
1499871921.69,1304,21.56,73992.3,11.27,5.55,4.75,0,*7D
1499871922.92,1305,21.56,73994.5,11.27,5.45,4.75,0,*7D
1499871924.11,1306,21.56,73992.3,11.25,5.55,4.81,0,*76
1499871925.34,1307,21.56,73992.3,11.25,5.51,4.79,0,*74
1499871926.54,1308,21.56,73992.8,11.25,5.41,4.59,0,*78
1499871927.7,1309,21.56,73992.0,11.25,5.29,4.49,0,*76
1499871928.89,1310,21.56,73994.5,11.25,5.19,4.41,0,*75
1499871930.12,1311,21.56,73992.5,11.23,5.33,4.59,0,*73
1499871931.33,1312,21.56,73996.5,11.23,5.33,4.53,0,*7A
1499871932.59,1313,21.56,73994.3,11.23,5.55,4.79,0,*73
1499871933.77,1314,21.56,73994.5,11.21,5.67,4.85,0,*74
1499871935.01,1315,21.56,73992.5,11.23,5.41,4.71,0,*78
1499871936.24,1316,21.56,73992.3,11.23,5.41,4.59,0,*71
1499871937.45,1317,21.56,73994.3,11.23,5.23,4.49,0,*75
1499871938.63,1318,21.56,73990.5,11.21,5.37,4.57,0,*72
1499871939.87,1319,21.56,73992.3,11.21,5.55,4.75,0,*77
1499871941.13,1320,21.56,73992.3,11.23,5.55,4.71,0,*7B
1499871942.33,1321,21.56,73994.3,11.21,5.49,4.59,0,*7F
1499871943.56,1322,21.56,73992.3,11.21,5.51,4.67,0,*78
1499871944.77,1323,21.56,73994.5,11.21,5.49,4.59,0,*7D
1499871945.98,1324,21.56,73998.0,11.21,5.73,4.85,0,*72
1499871947.22,1325,21.56,73992.5,11.23,5.89,5.07,0,*7F
1499871948.46,1326,21.56,73994.5,11.21,5.85,5.05,0,*70
1499871949.69,1327,21.56,73996.0,11.21,5.51,4.71,0,*7A
1499871950.93,1328,21.56,73994.0,11.23,4.79,3.93,0,*77
1499871952.11,1329,21.56,73994.0,11.21,4.45,3.63,0,*74
1499871953.32,1330,21.56,73994.3,11.19,4.57,3.81,0,*78
1499871954.56,1331,21.56,73996.0,11.19,4.67,3.89,0,*72
1499871955.77,1332,21.56,73994.8,11.19,5.15,4.45,0,*72
1499871957.0,1333,21.56,73996.0,11.19,5.27,4.57,0,*71
1499871958.21,1334,21.56,73996.3,11.19,5.11,4.33,0,*71
1499871959.42,1335,21.56,73992.8,11.19,5.15,4.41,0,*71
1499871960.63,1336,21.56,73990.8,11.17,4.79,4.07,0,*75
1499871961.84,1337,21.56,73992.0,11.17,5.07,4.31,0,*79
1499871963.02,1338,21.56,73992.5,11.17,4.89,4.15,0,*77
1499871964.25,1339,21.56,73994.8,11.15,4.63,3.93,0,*79
1499871965.46,1340,21.56,73996.8,11.13,4.57,3.79,0,*72
1499871966.66,1341,21.56,73992.0,11.13,4.33,3.67,0,*7E
1499871967.89,1342,21.56,73994.8,11.13,4.59,4.01,0,*76
1499871969.1,1343,21.56,73992.3,11.13,4.75,4.11,0,*78
1499871970.3,1344,21.56,73992.3,11.13,4.75,4.15,0,*7B
1499871971.51,1345,21.56,73992.3,11.11,4.81,4.23,0,*76
1499871972.75,1346,21.56,73992.5,11.11,5.05,4.37,0,*7D
1499871973.99,1347,21.56,73992.0,11.11,4.97,4.37,0,*76
1499871975.2,1348,21.56,73992.5,11.07,5.23,4.57,0,*76
1499871976.44,1349,21.56,73992.3,11.11,4.97,4.41,0,*79
1499871977.67,1350,21.56,73992.3,11.11,5.07,4.59,0,*70
1499871978.92,1351,21.56,73992.3,11.07,5.27,4.71,0,*7E
1499871980.15,1352,21.56,73994.0,11.11,5.45,4.97,0,*76
1499871981.38,1353,21.56,73990.8,11.07,5.49,5.05,0,*76
1499871982.61,1354,21.56,73990.5,11.07,5.27,4.81,0,*74
1499871983.85,1355,21.56,73992.0,11.07,5.11,4.67,0,*78
1499871985.11,1356,21.56,73992.0,11.07,5.05,4.71,0,*79
1499871986.35,1357,21.56,73996.0,11.07,5.11,4.71,0,*7D
1499871987.56,1358,21.56,73994.0,11.07,5.23,4.89,0,*74
1499871988.77,1359,21.56,73994.5,11.07,5.37,5.07,0,*77
1499871990.01,1360,21.56,73992.8,11.07,5.23,4.93,0,*74
1499871991.28,1361,21.56,73994.0,11.11,4.97,4.75,0,*74
1499871992.52,1362,21.56,73992.3,11.07,4.89,4.71,0,*7B
1499871993.73,1363,21.56,73994.0,11.05,5.01,4.89,0,*7E
1499871994.94,1364,21.56,73992.8,11.05,5.01,4.89,0,*79
1499871996.12,1365,21.56,73992.3,11.05,4.89,4.89,0,*79
1499871997.31,1366,21.56,73994.8,11.05,5.07,5.07,0,*7A
1499871998.53,1367,21.56,73990.8,11.03,5.19,5.23,0,*74
1499871999.74,1368,21.56,73994.8,11.03,5.23,5.29,0,*78
1499872000.95,1369,21.56,73992.8,11.03,5.45,5.59,0,*7E
1499872002.16,1370,21.56,73992.5,11.03,5.49,5.67,0,*77
1499872003.36,1371,21.56,73992.0,11.05,5.71,5.81,0,*73
1499872004.59,1372,21.56,73992.0,11.03,5.77,6.03,0,*79
1499872005.8,1373,21.56,73994.3,11.05,5.81,6.07,0,*73
1499872007.01,1374,21.56,73990.5,11.05,5.93,6.07,0,*77
1499872008.25,1375,21.56,73994.0,11.03,5.81,6.03,0,*77
1499872009.48,1376,21.56,73994.3,11.05,5.89,6.13,0,*7B
1499872010.7,1377,21.56,73994.0,11.05,5.93,6.25,0,*74
1499872011.88,1378,21.56,73992.5,11.05,6.07,6.29,0,*79
1499872013.12,1379,21.56,73988.5,11.05,6.13,6.35,0,*70
1499872014.33,1380,21.56,73994.8,11.05,5.89,6.25,0,*77
1499872015.54,1381,21.56,73996.3,11.03,5.99,6.25,0,*71
1499872016.8,1382,21.56,73994.8,11.03,5.89,6.13,0,*76
1499872018.03,1383,21.56,73994.8,11.03,6.07,6.35,0,*76
1499872019.22,1384,21.56,73992.8,11.05,6.03,6.29,0,*7E
1499872020.45,1385,21.56,73994.8,11.05,5.81,6.13,0,*7F
1499872021.64,1386,21.56,73994.8,11.05,6.03,6.29,0,*7C
1499872022.88,1387,21.56,73994.0,11.05,6.13,6.47,0,*74
1499872024.12,1388,21.56,73996.5,11.05,6.13,6.39,0,*72
1499872025.36,1389,21.56,73992.3,11.05,5.89,6.17,0,*7F
1499872026.58,1390,21.56,73992.8,11.05,5.81,6.13,0,*7B
1499872027.79,1391,21.56,73992.8,11.05,5.81,6.07,0,*7F
1499872029.03,1392,21.56,73992.0,11.03,5.81,6.03,0,*7E
1499872030.27,1393,21.56,73992.8,11.05,5.93,6.17,0,*7F
1499872031.48,1394,21.56,73992.5,11.05,5.81,6.03,0,*7E
1499872032.7,1395,21.56,73992.0,11.03,6.03,6.25,0,*74
1499872033.93,1396,21.56,73994.0,11.03,5.99,6.17,0,*76
1499872035.16,1397,21.56,73994.0,11.03,6.07,6.35,0,*73
1499872036.37,1398,21.56,73992.3,11.05,6.13,6.29,0,*72
1499872037.62,1399,21.56,73990.8,11.03,6.29,6.35,0,*71
1499872038.86,1400,21.56,73992.3,11.03,6.25,6.35,0,*7A
1499872040.07,1401,21.56,73994.3,11.03,6.25,6.25,0,*7A
1499872041.31,1402,21.56,73992.5,11.03,6.17,6.25,0,*78
1499872042.57,1403,21.56,73992.3,11.03,5.89,5.81,0,*70
1499872043.83,1404,21.56,73996.5,11.03,5.89,5.89,0,*7F
1499872045.07,1405,21.56,73992.8,11.05,6.13,6.13,0,*78
1499872046.32,1406,21.56,73992.5,11.03,6.17,6.17,0,*7D
1499872047.56,1407,21.56,73992.0,11.03,5.99,5.93,0,*76
1499872048.8,1408,21.56,73994.3,11.03,6.03,5.93,0,*79
1499872050.06,1409,21.56,73996.3,11.03,5.89,5.77,0,*73
1499872051.26,1410,21.56,73992.5,11.01,5.63,5.51,0,*79
1499872052.47,1411,21.56,73996.3,11.03,5.59,5.45,0,*76
1499872053.71,1412,21.56,73994.0,10.99,5.73,5.55,0,*7E
1499872054.93,1413,21.56,73994.8,11.01,5.85,5.77,0,*76
1499872056.12,1414,21.56,73994.3,11.01,6.03,5.95,0,*70
1499872057.31,1415,21.5,73992.0,11.01,6.03,5.99,0,*7D
1499872058.53,1416,21.56,73996.0,10.99,5.95,5.85,0,*7F
1499872059.72,1417,21.56,73994.8,11.01,5.67,5.63,0,*7B
1499872060.9,1418,21.56,73992.5,10.99,5.45,5.41,0,*74
1499872062.12,1419,21.56,73996.0,10.99,5.85,5.67,0,*7D
1499872063.35,1420,21.56,73996.0,10.99,5.77,5.73,0,*7F
1499872064.58,1421,21.56,73996.3,10.99,5.85,5.67,0,*76
1499872065.75,1422,21.56,73994.3,10.97,5.71,5.59,0,*7D
1499872066.96,1423,21.56,73996.0,10.95,5.55,5.45,0,*75
1499872068.13,1424,21.56,73994.5,10.97,5.29,5.23,0,*7B
1499872069.3,1425,21.56,73994.8,10.97,5.37,5.33,0,*74
1499872070.52,1426,21.56,73994.0,10.95,5.77,5.67,0,*70
1499872071.73,1427,21.56,73994.0,10.95,5.71,5.67,0,*77
1499872072.94,1428,21.56,73994.3,10.95,5.77,5.71,0,*79
1499872074.2,1429,21.56,73994.0,10.95,5.89,5.89,0,*7E
1499872075.37,1430,21.56,73994.8,10.97,5.63,5.59,0,*7D
1499872076.59,1431,21.56,73996.8,10.95,5.55,5.49,0,*7A
1499872077.77,1432,21.56,73994.8,10.97,5.51,5.49,0,*7F
1499872078.95,1433,21.56,73994.0,10.93,5.23,5.15,0,*76
1499872080.13,1434,21.56,73992.8,10.93,5.51,5.41,0,*75
1499872081.36,1435,21.56,73992.8,10.95,5.67,5.55,0,*72
1499872082.56,1436,21.56,73996.3,10.95,5.59,5.49,0,*71
1499872083.75,1437,21.56,73992.8,10.95,5.45,5.37,0,*74
1499872084.93,1438,21.56,73994.3,10.93,5.51,5.41,0,*79
1499872086.12,1439,21.56,73994.8,10.91,5.45,5.41,0,*7F
1499872087.32,1440,21.56,73998.8,10.91,5.33,5.15,0,*71
1499872088.54,1441,21.56,73992.3,10.91,5.15,4.97,0,*7F
1499872089.74,1442,21.56,73996.8,10.91,5.23,5.15,0,*72
1499872090.94,1443,21.56,73992.3,10.91,5.29,5.23,0,*7C
1499872092.11,1444,21.56,73996.8,10.89,5.37,5.37,0,*78
1499872093.27,1445,21.56,73994.3,10.85,5.45,5.33,0,*74
1499872094.46,1446,21.56,73994.8,10.85,5.27,5.07,0,*74
1499872095.65,1447,21.56,73996.0,10.85,5.55,5.37,0,*73
1499872096.83,1448,21.56,73996.8,10.85,5.33,5.23,0,*79
1499872098.02,1449,21.56,73992.3,10.85,5.27,5.15,0,*78
1499872099.24,1450,21.56,73996.8,10.83,5.15,4.97,0,*7C
1499872100.46,1451,21.56,73996.0,10.83,5.15,4.97,0,*7D
1499872101.66,1452,21.56,73994.3,10.81,5.11,4.97,0,*78
1499872102.83,1453,21.56,73994.0,10.81,5.41,5.23,0,*72
1499872104.0,1454,21.56,73992.3,10.81,5.29,5.11,0,*7A
1499872105.19,1455,21.56,73996.5,10.81,5.29,5.05,0,*7E
1499872106.42,1456,21.56,73996.0,10.79,5.23,4.93,0,*7E
1499872107.65,1457,21.56,73994.0,10.79,5.19,4.97,0,*72
1499872108.85,1458,21.56,73994.8,10.79,5.33,5.19,0,*72
1499872110.07,1459,21.56,73996.8,10.79,5.51,5.33,0,*7F
1499872111.23,1460,21.56,73998.8,10.77,5.41,5.29,0,*71
1499872112.42,1461,21.56,73996.5,10.77,5.41,5.27,0,*7E
1499872113.59,1462,21.56,73994.3,10.77,5.41,5.41,0,*7D
1499872114.75,1463,21.56,73996.3,10.77,5.49,5.37,0,*75
1499872115.91,1464,21.56,73994.0,10.77,5.59,5.49,0,*7A
1499872117.13,1465,21.56,73998.8,10.75,5.37,5.27,0,*79
1499872118.35,1466,21.56,73992.8,10.75,5.37,5.27,0,*7A
1499872119.54,1467,21.56,73994.8,10.75,5.45,5.33,0,*7B
1499872120.73,1468,21.56,73994.3,10.75,5.49,5.45,0,*79
1499872121.93,1469,21.56,73996.3,10.73,5.27,5.23,0,*76
1499872123.12,1470,21.56,73992.8,10.73,5.55,5.37,0,*7E
1499872124.28,1471,21.56,73992.5,10.73,5.49,5.37,0,*72
1499872125.47,1472,21.56,73996.3,10.73,5.55,5.49,0,*75
1499872126.66,1473,21.56,73996.8,10.73,5.55,5.45,0,*78
1499872127.82,1474,21.56,73998.5,10.73,5.49,5.45,0,*72
1499872129.04,1475,21.56,73994.8,10.71,5.51,5.41,0,*7C